TimeEDT,TemperatureF,Dew PointF,Humidity,Sea Level PressureIn,VisibilityMPH,Wind Direction,Wind SpeedMPH,Gust SpeedMPH,PrecipitationIn,Events,Conditions,WindDirDegrees,DateUTC
12:53 AM,42.1,39.0,89,30.17,10.0,Calm,Calm,-,N/A,,Clear,0,2013-05-27 04:53:00
1:53 AM,39.9,37.9,93,30.17,10.0,Calm,Calm,-,N/A,,Clear,0,2013-05-27 05:53:00
2:53 AM,41.0,37.9,89,30.17,10.0,Calm,Calm,-,N/A,,Clear,0,2013-05-27 06:53:00
3:53 AM,39.0,36.0,89,30.17,10.0,Calm,Calm,-,N/A,,Clear,0,2013-05-27 07:53:00
4:53 AM,39.0,36.0,89,30.18,10.0,Calm,Calm,-,N/A,,Clear,0,2013-05-27 08:53:00
5:53 AM,46.9,36.0,66,30.19,10.0,Calm,Calm,-,N/A,,Clear,0,2013-05-27 09:53:00
6:53 AM,50.0,36.0,59,30.20,10.0,SW,5.8,-,N/A,,Clear,230,2013-05-27 10:53:00
7:53 AM,53.1,37.0,55,30.21,10.0,SSW,6.9,-,N/A,,Clear,210,2013-05-27 11:53:00
8:53 AM,55.9,37.9,51,30.21,10.0,SW,5.8,-,N/A,,Clear,220,2013-05-27 12:53:00
9:53 AM,60.1,39.9,47,30.20,10.0,West,4.6,-,N/A,,Clear,260,2013-05-27 13:53:00
10:53 AM,63.0,39.9,43,30.19,10.0,Variable,4.6,-,N/A,,Clear,0,2013-05-27 14:53:00
11:53 AM,66.0,39.9,38,30.17,10.0,SW,4.6,-,N/A,,Clear,220,2013-05-27 15:53:00
12:53 PM,70.0,39.9,33,30.14,10.0,NE,4.6,-,N/A,,Clear,40,2013-05-27 16:53:00
1:53 PM,71.1,37.0,29,30.13,10.0,SW,6.9,-,N/A,,Clear,220,2013-05-27 17:53:00
2:53 PM,73.0,36.0,26,30.11,10.0,Variable,5.8,16.1,N/A,,Clear,0,2013-05-27 18:53:00
3:53 PM,73.0,34.0,24,30.09,10.0,Variable,5.8,17.3,N/A,,Clear,0,2013-05-27 19:53:00
4:53 PM,73.9,35.1,24,30.08,10.0,WSW,5.8,-,N/A,,Clear,250,2013-05-27 20:53:00
5:53 PM,73.9,35.1,24,30.08,10.0,WSW,8.1,-,N/A,,Clear,250,2013-05-27 21:53:00
6:53 PM,73.0,37.0,27,30.08,10.0,WSW,8.1,-,N/A,,Clear,240,2013-05-27 22:53:00
7:53 PM,68.0,39.0,35,30.10,10.0,WNW,3.5,-,N/A,,Clear,290,2013-05-27 23:53:00
8:53 PM,60.1,43.0,53,30.11,10.0,NNE,4.6,-,N/A,,Clear,30,2013-05-28 00:53:00
9:53 PM,54.0,44.1,69,30.12,10.0,Calm,Calm,-,N/A,,Clear,0,2013-05-28 01:53:00
10:53 PM,51.1,44.1,77,30.15,10.0,Calm,Calm,-,N/A,,Clear,0,2013-05-28 02:53:00
11:53 PM,50.0,44.1,80,30.16,10.0,Calm,Calm,-,N/A,,Clear,0,2013-05-28 03:53:00